Regional Weather Roundup
Issued by NWS

Home | Current Version | Previous Version | Graphics & Text | Print | Product List | Glossary On
Versions: 1 2 3 4 5 6 7 8 9 10 11 12 13 14 15 16 17 18 19 20 21 22 23 24 25 26 27 28 29 30 31 32 33 34 35 36 37 38 39 40 41 42 43 44 45 46 47 48 49 50
000
ASUS44 KMEG 251110
RWRTN
TENNESSEE HOURLY STATE WEATHER ROUNDUP
NATIONAL WEATHER SERVICE MEMPHIS TN
600 AM CDT MON SEP 25 2017

TNZ002-004-019-021-049-052-054-088>092-251200-
WEST TENNESSEE

CITY           SKY/WX    TMP DP  RH WIND       PRES   REMARKS
MEMPHIS INTL   CLEAR     72  67  84 CALM      29.99R
NWS MEMPHIS      N/A     67 N/A N/A MISG        N/A
JACKSON        CLEAR     64  64 100 CALM      30.01R FOG
DYERSBURG      CLEAR     65  65 100 CALM      30.01R
SOMERVILLE     CLEAR     66  64  94 CALM      29.99R FOG
COVINGTON      FOG       63  63 100 CALM      30.00R VSB 1/4
BOLIVAR        PTCLDY    63  63 100 CALM      30.00R FOG
PARIS          CLEAR     64  64 100 CALM      30.00S FOG
HUNTINGDON     CLEAR     66  66 100 CALM      30.00R FOG
LEXINGTON      CLEAR     63  63 100 CALM      30.01R FOG
SELMER         CLEAR     64  64 100 CALM      30.01R
SAVANNAH       PTCLDY    63  63 100 CALM      30.01R
$$

TNZ008-025-027-028-033-062-065-066-251200-
NORTH MIDDLE TENNESSEE

CITY           SKY/WX    TMP DP  RH WIND       PRES   REMARKS
NASHVILLE      PTCLDY    66  64  93 CALM      30.04R
PORTLAND       CLEAR     64  64 100 CALM      30.03R
CLARKSVILLE    FOG       65  64  97 CALM      30.02R VSB 1/4
SMYRNA           N/A    N/A N/A N/A MISG        N/A
COOKEVILLE     CLEAR     59  59 100 CALM      30.05R FOG
GALLATIN       CLEAR     64  64 100 CALM      30.05S
CROSSVILLE     CLEAR     60  59  96 CALM      30.09R FOG
$$

TNZ061-075-076-078-094-096-097-251200-
SOUTH MIDDLE TENNESSEE

CITY           SKY/WX    TMP DP  RH WIND       PRES   REMARKS
FAYETTEVILLE   MOCLDY    66  64  94 CALM      30.03S
TULLAHOMA      CLEAR     61  59  94 CALM      30.06R
WINCHESTER     PTCLDY    61  61 100 CALM      30.05R
MCMINNVILLE    CLOUDY    61  61 100 CALM      30.05R VSB 1/4
COLUMBIA       CLEAR     64 N/A N/A CALM      30.01S HAZE
SHELBYVILLE    CLEAR     64  63  94 E3        30.04R FOG
$$

TNZ017-018-042-046-047-251200-
NORTHEAST TENNESSEE

CITY           SKY/WX    TMP DP  RH WIND       PRES   REMARKS
TRI CITIES     MOCLDY    57  57 100 CALM      30.09R
ELIZABETHTON   MOCLDY    57  57 100 CALM      30.10R
$$

TNZ012-013-036-069-073-074-251200-
CENTRAL EAST TENNESSEE

CITY           SKY/WX    TMP DP  RH WIND       PRES   REMARKS
KNOXVILLE      CLOUDY    63  60  90 CALM      30.05R
OAK RIDGE      CLOUDY    64  62  93 CALM      30.06S
DOWNTOWN KNOXV CLEAR     64  64 100 CALM      30.05R FOG
GATLINBURG     CLEAR     59  57  94 CALM      30.06R
MORRISTOWN     CLEAR     66  57  72 CALM      30.06S
JACKSBORO      CLEAR     61  61 100 CALM      30.10R FOG
$$

TNZ083-085-099-251200-
SOUTHEAST TENNESSEE

CITY           SKY/WX    TMP DP  RH WIND       PRES   REMARKS
CHATTANOOGA    PTCLDY    67  64  90 CALM      30.04R
DAYTON         FOG       64  64 100 CALM      30.04R VSB 1/4
$$

SKY/WX REPORTED AS FAIR MEANS FEW OR NO CLOUDS BELOW
12 THOUSAND FEET.





USA.gov is the U.S. government's official web portal to all federal, state and local government web resources and services.